| time (UTC) | temp F | wind direction | speed knots | gust knots | rain 1hr in | rain 24hr in | rain mn in | humidity % | barometer mb |
| 20260505024520 | 70 | 179 | 3.5 | 7.8 | 0.00 | 0.00 | 0.00 | 43 | 1010.8 |
| 20260505023520 | 70 | 180 | 4.3 | 7.8 | 0.00 | 0.00 | 0.00 | 43 | 1010.8 |
| 20260505022517 | 70 | 179 | 4.3 | 8.7 | 0.00 | 0.00 | 0.00 | 43 | 1010.7 |
| 20260505021517 | 70 | 180 | 5.2 | 7.8 | 0.00 | 0.00 | 0.00 | 43 | 1010.6 |
| 20260505020520 | 71 | 180 | 5.2 | 9.6 | 0.00 | 0.00 | 0.00 | 42 | 1010.7 |
| 20260505015520 | 71 | 180 | 4.3 | 8.7 | 0.00 | 0.00 | 0.00 | 42 | 1010.6 |
| 20260505014521 | 71 | 173 | 6.1 | 11.3 | 0.00 | 0.00 | 0.00 | 41 | 1010.4 |
| 20260505013518 | 71 | 172 | 6.1 | 10.4 | 0.00 | 0.00 | 0.00 | 42 | 1010.4 |
| 20260505012519 | 71 | 172 | 6.1 | 9.6 | 0.00 | 0.00 | 0.00 | 42 | 1010.3 |
| 20260505011518 | 72 | 170 | 7.0 | 10.4 | 0.00 | 0.00 | 0.00 | 41 | 1010.2 |
| 20260505010518 | 72 | 168 | 7.0 | 9.6 | 0.00 | 0.00 | 0.00 | 40 | 1010.2 |
| 20260505005641 | 72 | 165 | 7.0 | 9.6 | 0.00 | 0.00 | 0.00 | 40 | 1010.1 |
| 20260505004518 | 73 | 166 | 6.1 | 9.6 | 0.00 | 0.00 | 0.00 | 39 | 1010.0 |
| 20260505003518 | 73 | 162 | 6.1 | 9.6 | 0.00 | 0.00 | 0.00 | 38 | 1009.9 |
| 20260505002519 | 73 | 163 | 5.2 | 8.7 | 0.00 | 0.00 | 0.00 | 38 | 1009.9 |
| 20260505001519 | 74 | 164 | 6.1 | 8.7 | 0.00 | 0.00 | 0.00 | 38 | 1009.9 |
| 20260505000519 | 74 | 167 | 5.2 | 9.6 | 0.00 | 0.00 | 0.00 | 38 | 1009.8 |
| 20260504235519 | 74 | 169 | 6.1 | 10.4 | 0.00 | 0.00 | 0.00 | 37 | 1009.8 |
| 20260504234519 | 74 | 168 | 7.0 | 11.3 | 0.00 | 0.00 | 0.00 | 36 | 1009.7 |
| 20260504233521 | 74 | 169 | 7.0 | 15.6 | 0.00 | 0.00 | 0.00 | 36 | 1009.7 |
| 20260504232521 | 75 | 170 | 7.0 | 12.2 | 0.00 | 0.00 | 0.00 | 35 | 1009.6 |
| 20260504231519 | 75 | 176 | 7.8 | 13.9 | 0.00 | 0.00 | 0.00 | 35 | 1009.5 |
| 20260504230521 | 75 | 172 | 7.0 | 13.0 | 0.00 | 0.00 | 0.00 | 35 | 1009.6 |
| 20260504225517 | 75 | 171 | 7.0 | 11.3 | 0.00 | 0.00 | 0.00 | 35 | 1009.6 |
| 20260504224517 | 75 | 170 | 7.0 | 13.9 | 0.00 | 0.00 | 0.00 | 35 | 1009.7 |
| 20260504223520 | 75 | 172 | 6.1 | 14.8 | 0.00 | 0.00 | 0.00 | 34 | 1009.7 |
| 20260504222541 | 75 | 173 | 10.4 | 19.1 | 0.00 | 0.00 | 0.00 | 34 | 1009.6 |
| 20260504221520 | 75 | 176 | 6.1 | 13.9 | 0.00 | 0.00 | 0.00 | 33 | 1009.6 |
| 20260504220537 | 75 | 181 | 7.8 | 16.5 | 0.00 | 0.00 | 0.00 | 33 | 1009.5 |
| 20260504215518 | 75 | 173 | 7.8 | 14.8 | 0.00 | 0.00 | 0.00 | 32 | 1009.4 |
| 20260504214517 | 75 | 172 | 9.6 | 14.8 | 0.00 | 0.00 | 0.00 | 32 | 1009.5 |
| 20260504213518 | 75 | 175 | 10.4 | 17.4 | 0.00 | 0.00 | 0.00 | 32 | 1009.5 |
| 20260504212521 | 75 | 171 | 6.1 | 13.9 | 0.00 | 0.00 | 0.00 | 32 | 1009.5 |
| 20260504211518 | 75 | 172 | 7.8 | 14.8 | 0.00 | 0.00 | 0.00 | 32 | 1009.5 |
| 20260504210538 | 75 | 174 | 10.4 | 20.0 | 0.00 | 0.00 | 0.00 | 32 | 1009.4 |
| 20260504205539 | 75 | 173 | 10.4 | 20.9 | 0.00 | 0.00 | 0.00 | 32 | 1009.5 |
| 20260504204518 | 74 | 173 | 7.0 | 13.9 | 0.00 | 0.00 | 0.00 | 32 | 1009.7 |
| 20260504203519 | 74 | 171 | 9.6 | 15.6 | 0.00 | 0.00 | 0.00 | 32 | 1009.6 |
| 20260504202519 | 74 | 172 | 10.4 | 20.0 | 0.00 | 0.00 | 0.00 | 32 | 1010.0 |
| 20260504201520 | 74 | 166 | 7.8 | 15.6 | 0.00 | 0.00 | 0.00 | 32 | 1010.0 |
| 20260504200519 | 73 | 166 | 9.6 | 15.6 | 0.00 | 0.00 | 0.00 | 33 | 1010.1 |
| 20260504195539 | 73 | 172 | 7.8 | 15.6 | 0.00 | 0.00 | 0.00 | 33 | 1010.3 |
| 20260504194519 | 73 | 164 | 8.7 | 15.6 | 0.00 | 0.00 | 0.00 | 33 | 1010.3 |
| 20260504193519 | 73 | 171 | 6.1 | 13.9 | 0.00 | 0.00 | 0.00 | 33 | 1010.6 |
| 20260504192519 | 72 | 192 | 6.1 | 11.3 | 0.00 | 0.00 | 0.00 | 33 | 1010.7 |
| 20260504191516 | 73 | 165 | 12.2 | 21.7 | 0.00 | 0.00 | 0.00 | 33 | 1010.9 |
| 20260504190520 | 73 | 167 | 9.6 | 13.9 | 0.00 | 0.00 | 0.00 | 33 | 1011.1 |
| 20260504185521 | 72 | 188 | 3.5 | 9.6 | 0.00 | 0.00 | 0.00 | 34 | 1011.3 |
| 20260504184520 | 71 | 157 | 8.7 | 12.2 | 0.00 | 0.01 | 0.00 | 35 | 1011.4 |
| 20260504183521 | 71 | 166 | 7.8 | 12.2 | 0.00 | 0.01 | 0.00 | 35 | 1011.6 |
| 20260504182519 | 71 | 170 | 10.4 | 16.5 | 0.00 | 0.01 | 0.00 | 35 | 1011.7 |
| 20260504181517 | 70 | 186 | 5.2 | 11.3 | 0.00 | 0.01 | 0.00 | 35 | 1011.9 |
| 20260504180518 | 70 | 179 | 7.8 | 13.9 | 0.00 | 0.01 | 0.00 | 35 | 1012.0 |
| 20260504175519 | 69 | 196 | 4.3 | 12.2 | 0.00 | 0.01 | 0.00 | 37 | 1012.2 |
| 20260504174518 | 69 | 175 | 8.7 | 12.2 | 0.00 | 0.01 | 0.00 | 37 | 1012.2 |
| 20260504173518 | 68 | 175 | 5.2 | 12.2 | 0.00 | 0.01 | 0.00 | 38 | 1012.3 |
| 20260504172518 | 68 | 175 | 7.8 | 17.4 | 0.00 | 0.01 | 0.00 | 38 | 1012.4 |
| 20260504171518 | 68 | 176 | 6.1 | 12.2 | 0.00 | 0.01 | 0.00 | 37 | 1012.6 |
| 20260504170518 | 68 | 184 | 3.5 | 10.4 | 0.00 | 0.01 | 0.00 | 36 | 1012.7 |
| 20260504150517 | 64 | 167 | 6.1 | 10.4 | 0.00 | 0.01 | 0.00 | 38 | 1013.8 |
| 20260504140518 | 58 | 172 | 4.3 | 7.8 | 0.00 | 0.01 | 0.00 | 50 | 1014.2 |
| 20260504130519 | 56 | 187 | 3.5 | 7.0 | 0.00 | 0.01 | 0.00 | 52 | 1014.7 |
| 20260504110557 | 52 | 181 | 5.2 | 8.7 | 0.00 | 0.01 | 0.00 | 58 | 1015.2 |
| 20260504100538 | 53 | 175 | 5.2 | 8.7 | 0.00 | 0.01 | 0.00 | 57 | 1015.1 |
| 20260504081519 | 53 | 272 | 0.9 | 2.6 | 0.00 | 0.01 | 0.00 | 56 | 1015.5 |
| 20260504080539 | 52 | 326 | 0.0 | 0.9 | 0.00 | 0.01 | 0.00 | 59 | 1015.4 |
| 20260504050519 | 52 | 191 | 0.9 | 2.6 | 0.00 | 0.01 | 0.00 | 53 | 1015.7 |
| 20260504045540 | 52 | 193 | 1.7 | 2.6 | 0.00 | 0.01 | 0.00 | 53 | 1015.6 |
| 20260504044519 | 52 | 195 | 1.7 | 3.5 | 0.00 | 0.01 | 0.00 | 52 | 1015.7 |
| 20260504043540 | 52 | 188 | 1.7 | 2.6 | 0.00 | 0.01 | 0.00 | 52 | 1015.7 |
| 20260504042521 | 52 | 186 | 1.7 | 3.5 | 0.00 | 0.01 | 0.00 | 51 | 1015.7 |
| 20260504041517 | 52 | 187 | 1.7 | 2.6 | 0.00 | 0.01 | 0.00 | 51 | 1015.6 |
| 20260504040517 | 53 | 171 | 3.5 | 5.2 | 0.00 | 0.01 | 0.00 | 49 | 1015.6 |
| 20260504035540 | 53 | 176 | 3.5 | 4.3 | 0.00 | 0.01 | 0.01 | 50 | 1015.7 |
| 20260504034541 | 53 | 184 | 3.5 | 4.3 | 0.00 | 0.01 | 0.01 | 51 | 1015.6 |
| 20260504033517 | 53 | 172 | 4.3 | 7.0 | 0.00 | 0.01 | 0.01 | 48 | 1015.5 |
| 20260504032518 | 52 | 171 | 4.3 | 7.0 | 0.00 | 0.01 | 0.01 | 51 | 1015.4 |
| 20260504031518 | 53 | 184 | 2.6 | 5.2 | 0.00 | 0.01 | 0.01 | 51 | 1015.4 |
| 20260504030518 | 53 | 188 | 0.9 | 3.5 | 0.00 | 0.01 | 0.01 | 49 | 1015.3 |
| 20260504025521 | 54 | 158 | 0.9 | 4.3 | 0.00 | 0.01 | 0.01 | 47 | 1015.2 |